Tracking 33485 objects as of 15-Mar-2026
HD Live streaming from Space Station
objects crossing your sky now

STARLINK-36623

Track STARLINK-36623 now!
10-day predictions
STARLINK-36623 is classified as:


NORAD ID: 67644
Int'l Code: 2026-020AD
Perigee: 421.9 km
Apogee: 422.8 km
Inclination: 43.0 °
Period: 92.9 minutes
Semi major axis: 6793 km
RCS: Unknown
Launch date: January 30, 2026
Source: United States (US)
Launch site: AIR FORCE EASTERN TEST RANGE (AFETR)
Your satellite tracking list
Your tracking list is empty




NASA's NSSDC Master Catalog

Two Line Element Set (TLE):
1 67644U 26020AD  26074.25001157  .00075470  00000-0  12824-2 0  9999
2 67644  42.9999 109.0502 0000627 265.3832 186.2183 15.50524365  5956
Source of the keplerian elements: AFSPC